Home > Weather > Qikiqtarjuaq > Past weeks

Flag for Canada Weather for the Past 2 Weeks in Qikiqtarjuaq, Nunavut, Canada

Now
-13 °F

Snow flurries. Passing clouds.


Feels Like: -31 °F
Forecast: -11 / -2 °F
Wind: 9 mph from Southwest

Location: Broughton Island Airport

Current Time: Feb 7, 2016 at 8:57:55 AM

Latest Report: Feb 7, 2016 at 8:00 AM


Visibility: 12 mi

Pressure: 29.71 "Hg

Humidity: 83%

Dew point: -17 °F

Location of QikiqtarjuaqLocation

Historic Weather in Qikiqtarjuaq — Graph

°F

Qikiqtarjuaq Temperature Yesterday

Maximum temperature yesterday: -11 °F (at 6:00 AM)
Minimum temperature yesterday: -20 °F (at 3:00 AM)
Average temperature yesterday: -15 °F

High & Low Weather Summary for the Past Weeks

 TemperatureHumidityPressure
High-2 °F (Feb 3, 12:00 AM)84% (Feb 1, 4:54 PM)30.02 "Hg (Feb 1, 4:54 PM)
Low-31 °F (Jan 26, 9:00 AM)30% (Feb 1, 6:00 AM)29.30 "Hg (Jan 24, 2:00 AM)
Average-15 °F71%29.68 "Hg
* Reported Jan 23 8:00 AM — Feb 7 8:00 AM, Qikiqtarjuaq, Weather by CustomWeather, © 2016

Note: Actual official high and low records may vary slightly from our data, if they occured in-between our weather recording intervals... More about our weather records

Advertising

Qikiqtarjuaq Weather History for the Previous 24 Hours

 ConditionsComfort  
Time TempWeatherWind HumidityBarometerVisibility
8:00 AM
Sun, Feb 7
-13 °FSnow flurries. Passing clouds.9 mph83%29.71 "Hg12 mi
7:00 AM-13 °FSnow flurries. Overcast.10 mph76%29.71 "Hg10 mi
6:00 AM-11 °FSnow flurries. Overcast.9 mph76%29.71 "Hg10 mi
5:47 AM-13 °FOvercast.9 mph83%29.71 "Hg9 mi
5:00 AM-13 °FLight snow. Passing clouds.7 mph76%29.71 "Hg5 mi
4:01 AM-13 °FOvercast.8 mph76%29.72 "Hg9 mi
3:46 AM-11 °FLight snow. Overcast.9 mph76%29.72 "Hg9 mi
3:00 AM-11 °FLight snow. Overcast.9 mph76%29.72 "Hg9 mi
2:00 AM-11 °FLight snow. Overcast.8 mph76%29.72 "Hg9 mi
1:55 AM-11 °FLight snow. Overcast.9 mph76%29.73 "Hg9 mi
1:00 AM-11 °FOvercast.6 mph76%29.73 "Hg9 mi
12:00 AM-11 °FOvercast.7 mph76%29.73 "Hg9 mi
11:00 PM
Sat, Feb 6
-13 °FPassing clouds.9 mph76%29.74 "Hg9 mi
10:02 PM-13 °FLight snow. Clear.12 mph76%29.75 "Hg9 mi
9:00 PM-13 °FLight snow. Clear.10 mph76%29.76 "Hg9 mi
8:01 PM-11 °FLight snow. Passing clouds.14 mph76%29.76 "Hg9 mi
7:00 PM-11 °FPassing clouds.7 mph76%29.77 "Hg9 mi
6:00 PM-11 °FLow clouds.9 mph76%29.77 "Hg9 mi
5:00 PM-11 °FMostly cloudy.8 mph76%29.79 "Hg15 mi
4:00 PM-13 °FSnow flurries. Partly cloudy.7 mph76%29.79 "Hg15 mi
3:00 PM-18 °FSnow flurries. Passing clouds.7 mph75%29.80 "Hg15 mi
2:00 PM-18 °FSnow flurries. Partly sunny.5 mph75%29.80 "Hg15 mi
1:00 PM-15 °FSnow flurries. Broken clouds.3 mph76%29.81 "Hg15 mi
12:00 PM-15 °FSnow flurries. Partly sunny.6 mph76%29.82 "Hg15 mi
11:00 AM-15 °FSnow flurries. Broken clouds.6 mph76%29.84 "Hg15 mi
10:00 AM-17 °FSnow flurries. Broken clouds.3 mph76%29.85 "Hg15 mi
9:00 AM-13 °FBroken clouds.6 mph76%29.86 "Hg15 mi
8:00 AM-15 °FPartly cloudy.5 mph83%29.88 "Hg15 mi
Weather by CustomWeather, © 2016

See weather overviewHow to use our weather pages